Regional Weather Roundup
Issued by NWS

Home | Current Version | Previous Version | Graphics & Text | Print | Product List | Glossary On
Versions: 1 2 3 4 5 6 7 8 9 10 11 12 13 14 15 16 17 18 19 20 21 22 23 24 25 26 27 28 29 30 31 32 33 34 35 36 37 38 39 40 41 42 43 44 45 46 47 48 49 50
461
ASUS45 KSLC 282010
RWRUT

UTAH REGIONAL WEATHER ROUNDUP
NATIONAL WEATHER SERVICE SALT LAKE CITY UT
200 PM MDT TUE MAR 28 2017

UTZ001>011-023>025-282100-

NORTHERN UTAH

CITY           SKY/WX    TMP DP  RH WIND       PRES   REMARKS
BRIGHAM CITY     N/A     52  31  43 NW15      30.14S
HILL AFB       MOSUNNY   49  30  46 N12       30.13S
LOGAN          SUNNY     52  33  48 N17G24    30.13F
OGDEN          SUNNY     50  32  50 NW14      30.12F
SALT LAKE CITY MOSUNNY   51  32  48 NW17G25   30.13S
TOOELE VALLEY  SUNNY     50  34  53 N12G20    30.17R
WENDOVER       SUNNY     52  17  25 N6        30.18F
HEBER CITY     MOSUNNY   50  30  46 NE16      30.07S
WEST JORDAN    SUNNY     51  42  71 NW18G28   30.13S

$$

UTZ011>015-024>027-282100-

CENTRAL/NORTHEAST UTAH

CITY           SKY/WX    TMP DP  RH WIND       PRES   REMARKS
PROVO AIRPORT  MOSUNNY   52  45  76 NW12G17   30.10F
MOAB/CANYONLAN PTSUNNY   55  36  48 NE16G22   29.91F
DELTA          CLOUDY    45  32  61 NW8       30.13F
PRICE          MOSUNNY   50  31  48 NW20G28   29.97F
RICHFIELD      CLOUDY    48  28  46 NE8       30.11F
ROOSEVELT      SUNNY     54  32  43 CALM      29.98S
VERNAL         CLOUDY    54  30  40 N25G35    29.98R

$$

UTZ013>016-019>022-027-282100-

SOUTHERN UTAH

CITY           SKY/WX    TMP DP  RH WIND       PRES   REMARKS
BRYCE CANYON   MOSUNNY   45  22  40 N18G26    30.03F
CEDAR CITY     PTSUNNY   45  29  53 NE17G25   30.10F
MILFORD        PTSUNNY   48  34  58 NE16G25   30.12F
ST GEORGE      PTCLDY    63  26  24 NE20G28   30.01F
HANKSVILLE     PTSUNNY   61  27  27 N10G21    29.93F
KANAB          SUNNY     59  25  27 N13G23    30.02F
BLANDING       CLOUDY    46  38  74 NW16G22   29.94F

$$

REGIONAL REPORTS     COLORADO/ARIZONA

CITY           SKY/WX    TMP DP  RH WIND       PRES   REMARKS
CRAIG, CO      LGT RAIN  43  38  82 SW6       29.93S
GRAND JUNCTION LGT RAIN  50  41  71 W12       29.91F
RIFLE, CO      LGT RAIN  48  35  60 NW17      29.89S
MONTROSE, CO   CLOUDY    46  39  76 NW17      29.90F
CORTEZ, CO     CLOUDY    50  40  68 W13       29.83F
COLORADO CITY    N/A     57  27  30 NW17G25   30.04F
PAGE, AZ       CLOUDY    60  26  27 N7        29.91F
GRAND CANYON   PTSUNNY   50  27  40 MISG      29.99S
KINGMAN, AZ    SUNNY     61  10  13 N21G31    30.01F
FLAGSTAFF, AZ  CLOUDY    43  25  49 VRB5      29.97S

$$

REGIONAL REPORTS    NEVADA/IDAHO/WYOMING

CITY           SKY/WX    TMP DP  RH WIND       PRES   REMARKS
LAS VEGAS, NV  SUNNY     67  16  14 NW8G24    30.04F
ELY, NY        SUNNY     44  22  41 N15       30.17F
ELKO, NV       MOSUNNY   46  23  40 VRB5      30.23F
POCATELLO, ID  MOSUNNY   46  30  53 W8        30.21S
BURLEY, ID     MOSUNNY   49  28  44 W12G23    30.21F
FORT BRIDGER,  CLOUDY    44  31  60 NW5       30.10F
EVANSTON, WY   MOSUNNY   42  27  55 NW18G30   30.09S
ROCK SPRINGS,  FLURRIES  36  32  85 NW9       30.07S WCI  29
KEMMERER, WY     N/A     41  28  60 NW13      30.08S

$$




USA.gov is the U.S. government's official web portal to all federal, state and local government web resources and services.